Location: Kaiser
(34.0939°N, 117.4889°W)
Time: 03:47:20
(UTC+00:00)

Cosmos 1428 Rocket - Pass Details

Date: 29 October 2020
Orbit: 947 x 989 km, 82.9° (Epoch: 26 November)

Event Time Altitude Azimuth Distance (km) Brightness Sun altitude
Rises 12:43:45 0° 189° (S) 3,667 7.5 -17.9°
Reaches altitude 10° 12:46:16 10° 190° (S) 2,718 6.8 -17.3°
Maximum altitude 12:52:29 76° 276° (W) 1,000 4.4 -16.1°
Drops below altitude 10° 12:58:41 10° 3° (N) 2,704 6.8 -14.8°
Sets 13:01:11 0° 5° (N) 3,648 7.5 -14.3°
